Location: Wyalusing
(42.9440°N, 91.1410°W)
Time: 13:27:21
(UTC-06:00)

Amateur Radio Satellites - All Passes

Search period start: 17 November 2017 12:57
Search period end: 18 November 2017 12:57
Location: Wyalusing, 42.9440°N, 91.1410°W

Satellite Date Start Highest point End Downlink Frequencies (MHz)
Time Altitude Azimuth
BEESAT 3 17 Nov 13:10:21 13:13:56 34° 244° (WSW) 13:17:26 437.485
50 SAT 17 Nov 13:11:20 13:14:08 26° 97° (E) 13:16:53 437.505
BUGSAT 1 17 Nov 13:19:25 13:22:29 19° 266° (W) 13:25:33 437.445
SPROUT 17 Nov 13:25:27 13:29:10 30° 291° (WNW) 13:32:51 437.525
M-CUBED/EXP-1 PRIME 17 Nov 13:28:15 13:31:41 77° 70° (ENE) 13:35:24 437.505
VELOX 1 17 Nov 13:30:14 13:34:29 44° 289° (WNW) 13:38:41 145.980
O/OREOS (USA 219) 17 Nov 13:31:06 13:35:01 29° 104° (ESE) 13:38:59 437.305
UKube-1 17 Nov 13:44:50 13:48:53 38° 98° (E) 13:52:55 .
FALCONSAT 3 17 Nov 14:00:34 14:03:39 25° 183° (S) 14:06:44 435.103
MOZHAYETS 4 17 Nov 14:02:10 14:03:20 11° 88° (E) 14:04:31
Gurwin Techsat 1B 17 Nov 14:07:21 14:11:40 25° 266° (W) 14:16:01 435.225
BEESAT 2 17 Nov 14:11:23 14:14:49 27° 246° (WSW) 14:18:13 435.950
AO-85 17 Nov 14:15:20 14:19:59 66° 239° (WSW) 14:24:58 145.980
Oscar 19 17 Nov 14:18:34 14:21:07 14° 271° (W) 14:23:40 437.125/150
ITAMSAT 1 17 Nov 14:19:22 14:24:16 43° 69° (ENE) 14:29:12 435.822/435.867
AO-7 17 Nov 14:20:57 14:29:12 77° 68° (ENE) 14:37:30 .
DX 1 17 Nov 14:29:28 14:33:39 43° 289° (WNW) 14:37:47 434.975-435.025
BEESAT 17 Nov 14:37:26 14:40:58 20° 93° (E) 14:44:29 436.000
ITUPSAT 1 17 Nov 14:43:58 14:47:46 23° 94° (E) 14:51:31 437.325
50 SAT 17 Nov 14:43:59 14:46:02 16° 293° (WNW) 14:48:05 437.505
YUBILEINY 17 Nov 14:57:31 15:02:09 15° 56° (NE) 15:06:45 435.215
DOVE 4 17 Nov 15:04:58 15:08:27 19° 62° (ENE) 15:12:04 437.250
O/OREOS (USA 219) 17 Nov 15:10:15 15:14:21 31° 301° (WNW) 15:18:28 437.305
UKube-1 17 Nov 15:21:25 15:24:39 21° 295° (WNW) 15:27:52 .
MOZHAYETS 4 17 Nov 15:36:27 15:41:01 76° 286° (WNW) 15:45:34
CUBESAT XI-V 17 Nov 15:37:00 15:40:56 26° 95° (E) 15:44:52 437.345
FALCONSAT 3 17 Nov 15:39:55 15:42:08 15° 198° (SSW) 15:44:19 435.103
ITAMSAT 1 17 Nov 15:59:37 16:03:52 25° 266° (W) 16:08:10 435.822/435.867
XW-2F 17 Nov 16:06:47 16:07:20 10° 63° (ENE) 16:07:53 145.980 - 146.000
BEESAT 17 Nov 16:14:25 16:18:55 44° 290° (WNW) 16:23:25 436.000
AO-7 17 Nov 16:16:28 16:22:44 23° 267° (W) 16:29:03 .
ITUPSAT 1 17 Nov 16:21:17 16:25:42 39° 291° (WNW) 16:30:05 437.325
KKS-1 17 Nov 16:23:14 16:26:15 18° 92° (E) 16:29:15 437.445
NO-84 17 Nov 16:34:11 16:37:57 73° 136° (SE) 16:42:01 435.350 FM
KAITUO 1B 17 Nov 16:39:44 16:42:24 19° 67° (ENE) 16:45:04 145.475/437.950
DOVE 4 17 Nov 16:40:46 16:45:36 58° 261° (W) 16:50:44 437.250
XW-2D 17 Nov 16:43:03 16:46:19 30° 70° (ENE) 16:49:37 145.860 - 145.880
YUBILEINY 17 Nov 16:52:00 17:00:51 69° 79° (E) 17:09:39 435.215
HO-68 17 Nov 16:52:25 16:58:11 27° 58° (ENE) 17:03:58 435.675
XW-2B 17 Nov 16:57:25 17:00:56 42° 73° (ENE) 17:04:30 145.730 - 145.750
STARS 17 Nov 16:59:34 17:02:27 17° 92° (E) 17:05:18 437.465
CUTE-I 17 Nov 17:00:29 17:05:37 48° 69° (ENE) 17:10:46 437.470
RS-15 17 Nov 17:14:05 17:21:15 18° 96° (E) 17:28:22 29.354- 29.394
CUBESAT XI-V 17 Nov 17:14:08 17:18:19 33° 291° (WNW) 17:22:30 437.345
LilacSat-2 17 Nov 17:19:14 17:22:58 90° 54° (NE) 17:26:45 437.200
XW-2C 17 Nov 17:22:31 17:26:14 89° 245° (WSW) 17:30:00 145.795 - 145.815
CUTE 1.7 + AOD 2 17 Nov 17:29:52 17:33:19 25° 68° (ENE) 17:36:46 437.475
NUDT-PHONESAT 17 Nov 17:30:34 17:34:11 78° 78° (ENE) 17:37:51 437.300
XW-2F 17 Nov 17:37:15 17:40:55 62° 260° (W) 17:44:36 145.980 - 146.000
CUBEBUG 2 17 Nov 17:42:54 17:46:34 23° 67° (ENE) 17:50:09 437.445
KKS-1 17 Nov 17:58:45 18:03:02 46° 289° (WNW) 18:07:17 437.445
SEEDS 17 Nov 18:08:00 18:11:52 39° 71° (ENE) 18:15:47 437.485
AO-73 17 Nov 18:08:20 18:09:34 11° 62° (ENE) 18:10:47 145.935
STRAND 1 17 Nov 18:09:15 18:09:56 10° 87° (E) 18:10:38 437.568
NO-84 17 Nov 18:12:19 18:15:41 26° 337° (NNW) 18:19:13 435.350 FM
KAITUO 1B 17 Nov 18:12:59 18:16:11 28° 264° (W) 18:19:25 145.475/437.950
XW-2D 17 Nov 18:17:53 18:20:32 18° 267° (W) 18:23:13 145.860 - 145.880
XW-2A 17 Nov 18:24:22 18:27:10 25° 70° (ENE) 18:29:59 145.665 - 145.685
AAUSAT CUBESAT 2 17 Nov 18:27:48 18:31:20 29° 69° (ENE) 18:34:55 437.432
Oscar 11 17 Nov 18:28:48 18:30:39 13° 62° (ENE) 18:32:30 .
XW-2B 17 Nov 18:33:31 18:35:20 13° 269° (W) 18:37:10 145.730 - 145.750
STARS 17 Nov 18:34:48 18:39:01 46° 289° (WNW) 18:43:12 437.465
HO-68 17 Nov 18:38:13 18:45:21 66° 257° (WSW) 18:52:33 435.675
CUTE-I 17 Nov 18:41:39 18:45:52 23° 267° (W) 18:50:07 437.470
UWE-3 17 Nov 18:47:33 18:51:59 60° 74° (ENE) 18:56:19 435.000/436.395/437.385
ZACube-1 17 Nov 18:47:49 18:51:41 32° 70° (ENE) 18:55:30 437.345
YUBILEINY 17 Nov 18:49:56 18:56:51 27° 279° (W) 19:03:46 435.215
CUTE 1.7 + AOD 2 17 Nov 19:05:25 19:09:02 28° 265° (W) 19:12:42 437.475
CUBEBUG 2 17 Nov 19:18:40 19:22:58 37° 263° (W) 19:27:11 437.445
RS-15 17 Nov 19:19:18 19:31:30 73° 117° (ESE) 19:43:41 29.354- 29.394
FO-29 17 Nov 19:37:21 19:43:53 28° 90° (E) 19:50:10 435.910
DELFI C3 17 Nov 19:38:16 19:40:15 14° 64° (ENE) 19:42:14 145.870
AO-73 17 Nov 19:40:51 19:45:12 77° 258° (WSW) 19:49:29 145.935
STRAND 1 17 Nov 19:44:41 19:49:50 88° 100° (E) 19:54:57 437.568
SEEDS 17 Nov 19:44:54 19:47:43 18° 268° (W) 19:50:33 437.485
NO-84 17 Nov 19:51:40 19:54:13 16° 358° (N) 19:56:49 435.350 FM
XW-2A 17 Nov 19:57:40 19:59:53 17° 266° (W) 20:02:06 145.665 - 145.685
Max Valier Satellite 17 Nov 20:00:11 20:02:18 15° 66° (ENE) 20:04:26 145.860
Oscar 11 17 Nov 20:01:57 20:06:13 67° 258° (WSW) 20:10:31 .
AAUSAT CUBESAT 2 17 Nov 20:03:25 20:06:46 24° 266° (W) 20:10:09 437.432
EO-88 17 Nov 20:08:24 20:10:08 13° 65° (ENE) 20:11:52 145.990 - 145.960
ZACube-1 17 Nov 20:24:27 20:27:58 24° 265° (W) 20:31:28 437.345
UWE-3 17 Nov 20:26:36 20:28:46 13° 270° (W) 20:30:56 435.000/436.395/437.385
HO-68 17 Nov 20:33:15 20:34:22 10° 275° (W) 20:35:30 435.675
DELFI C3 17 Nov 21:10:41 21:14:32 52° 260° (W) 21:18:26 145.870
FO-29 17 Nov 21:21:33 21:29:22 67° 289° (WNW) 21:36:52 435.910
STRAND 1 17 Nov 21:25:56 21:28:16 13° 302° (WNW) 21:30:35 437.568
NO-84 17 Nov 21:29:26 21:32:50 22° 20° (NNE) 21:36:14 435.350 FM
Max Valier Satellite 17 Nov 21:32:22 21:35:48 38° 262° (W) 21:39:14 145.860
RS-15 17 Nov 21:33:26 21:45:00 44° 323° (NW) 21:56:26 29.354- 29.394
SO-50 17 Nov 21:35:07 21:37:44 15° 109° (ESE) 21:40:21 436.795
nSIGHT-1 17 Nov 21:38:18 21:41:04 27° 137° (SE) 21:43:50 .
EO-88 17 Nov 21:39:56 21:43:24 43° 261° (W) 21:46:53 145.990 - 145.960
UNISAT 6 17 Nov 21:41:43 21:45:55 51° 100° (E) 21:50:03 437.425
TIGRISAT 17 Nov 21:47:10 21:51:24 54° 100° (E) 21:55:32 435.000
ISS 17 Nov 22:09:17 22:12:24 43° 140° (SE) 22:15:32 437.550
ESTCUBE 1 17 Nov 22:13:53 22:18:05 42° 71° (ENE) 22:22:20 437.505/2401.250
LO-87 17 Nov 22:16:49 22:20:23 59° 75° (ENE) 22:23:57 145.935 - 145.965
PRISM 17 Nov 22:18:09 22:22:09 44° 99° (E) 22:26:08 437.425
SPROUT 17 Nov 22:43:55 22:47:13 22° 66° (ENE) 22:50:31 437.525
VELOX 1 17 Nov 22:52:51 22:55:59 19° 64° (ENE) 22:59:08 145.980
QB50P2 17 Nov 22:56:26 22:58:43 14° 91° (E) 23:01:00 145.880/145.840
AIST 2D 17 Nov 23:01:44 23:05:07 42° 99° (E) 23:08:28 435.315
NO-84 17 Nov 23:06:29 23:10:46 77° 37° (NE) 23:15:00 435.350 FM
FO-29 17 Nov 23:08:38 23:12:55 16° 309° (NW) 23:17:11 435.910
SO-50 17 Nov 23:13:15 23:17:39 61° 307° (NW) 23:22:09 436.795
nSIGHT-1 17 Nov 23:14:08 23:17:11 41° 334° (NNW) 23:20:16 .
UNISAT 6 17 Nov 23:19:39 23:22:11 16° 297° (WNW) 23:24:44 437.425
TIGRISAT 17 Nov 23:25:13 23:27:37 15° 297° (WNW) 23:30:02 435.000
O/OREOS (USA 219) 17 Nov 23:39:32 23:44:06 64° 65° (ENE) 23:48:35 437.305
50 SAT 17 Nov 23:41:22 23:42:01 10° 64° (ENE) 23:42:39 437.505
ISS 17 Nov 23:45:59 23:48:57 31° 338° (NNW) 23:51:56 437.550
DX 1 17 Nov 23:50:43 23:53:44 19° 64° (ENE) 23:56:47 434.975-435.025
DUCHIFAT 1 17 Nov 23:51:07 23:55:02 39° 98° (E) 23:58:56 145.980
ESTCUBE 1 17 Nov 23:51:53 23:55:04 19° 267° (W) 23:58:16 437.505/2401.250
RS-15 17 Nov 23:52:14 00:01:53 25° 356° (N) 00:11:16 29.354- 29.394
EO-79 17 Nov 23:53:26 23:57:34 55° 101° (E) 00:01:39 145.935-145.965
PRISM 17 Nov 23:54:20 23:57:04 17° 296° (WNW) 23:59:49 437.425
NANOSAT C BR1 17 Nov 23:59:18 00:03:26 56° 100° (E) 00:07:31 145.865
POLYITAN 1 18 Nov 00:07:36 00:11:48 80° 103° (ESE) 00:15:59 437.675
SPROUT 18 Nov 00:18:58 00:22:53 35° 263° (W) 00:26:51 437.525
VELOX 1 18 Nov 00:27:51 00:32:05 44° 261° (W) 00:36:22 145.980
QB50P2 18 Nov 00:30:43 00:34:48 50° 287° (WNW) 00:38:50 145.880/145.840
AIST 2D 18 Nov 00:36:20 00:37:53 13° 295° (WNW) 00:39:27 435.315
UKube-1 18 Nov 00:39:50 00:43:46 36° 70° (ENE) 00:47:46 .
Gurwin Techsat 1B 18 Nov 00:43:02 00:46:10 16° 90° (E) 00:49:17 435.225
NO-84 18 Nov 00:44:57 00:47:40 17° 236° (SW) 00:50:21 435.350 FM
PCSat 18 Nov 00:45:29 00:50:43 52° 114° (ESE) 00:55:58 145.827
Oscar 19 18 Nov 00:47:22 00:51:29 24° 94° (E) 00:55:35 437.125/150
nSIGHT-1 18 Nov 00:51:45 00:54:02 18° 354° (N) 00:56:20 .
SO-50 18 Nov 00:57:17 00:59:04 12° 328° (NNW) 01:00:51 436.795
BUGSAT 1 18 Nov 00:58:48 01:02:47 54° 100° (E) 01:06:43 437.445
MOZHAYETS 4 18 Nov 01:04:39 01:06:46 13° 61° (ENE) 01:08:53
50 SAT 18 Nov 01:10:36 01:13:42 43° 260° (W) 01:16:51 437.505
O/OREOS (USA 219) 18 Nov 01:20:49 01:22:54 13° 262° (W) 01:24:58 437.305
ISS 18 Nov 01:23:50 01:26:09 17° 358° (N) 01:28:26 437.550
DX 1 18 Nov 01:25:24 01:29:34 45° 260° (W) 01:33:48 434.975-435.025
DUCHIFAT 1 18 Nov 01:27:29 01:30:24 19° 295° (WNW) 01:33:20 145.980
EO-79 18 Nov 01:30:35 01:32:51 14° 297° (WNW) 01:35:07 145.935-145.965
NANOSAT C BR1 18 Nov 01:36:30 01:38:40 14° 297° (WNW) 01:40:49 145.865
BEESAT 18 Nov 01:44:25 01:48:25 27° 66° (ENE) 01:52:26 436.000
POLYITAN 1 18 Nov 01:46:17 01:46:56 10° 300° (WNW) 01:47:34 437.675
ITUPSAT 1 18 Nov 01:51:18 01:55:30 31° 67° (ENE) 01:59:41 437.325
RS-15 18 Nov 02:08:17 02:19:12 37° 31° (NNE) 02:29:33 29.354- 29.394
UKube-1 18 Nov 02:16:38 02:19:53 21° 266° (W) 02:23:11 .
Gurwin Techsat 1B 18 Nov 02:21:18 02:26:36 69° 287° (WNW) 02:31:53 435.225
AO-7 18 Nov 02:22:36 02:28:54 23° 92° (E) 02:35:09 .
Oscar 19 18 Nov 02:26:06 02:30:58 44° 290° (WNW) 02:35:50 437.125/150
nSIGHT-1 18 Nov 02:28:33 02:31:05 21° 14° (NNE) 02:33:38 .
PCSat 18 Nov 02:29:48 02:34:23 27° 314° (NW) 02:38:59 145.827
ITAMSAT 1 18 Nov 02:32:58 02:35:26 13° 89° (E) 02:37:54 435.822/435.867
BUGSAT 1 18 Nov 02:35:38 02:37:40 14° 297° (WNW) 02:39:40 437.445
M-CUBED/EXP-1 PRIME 18 Nov 02:38:45 02:43:07 51° 105° (ESE) 02:47:38 437.505
MOZHAYETS 4 18 Nov 02:38:45 02:43:19 73° 257° (WSW) 02:47:53
CUBESAT XI-V 18 Nov 02:41:06 02:45:00 28° 68° (ENE) 02:48:56 437.345
BEESAT 3 18 Nov 03:00:07 03:03:32 28° 115° (ESE) 03:07:00 437.485
ISS 18 Nov 03:00:34 03:03:24 26° 18° (NNE) 03:06:13 437.550
BEESAT 18 Nov 03:21:42 03:26:03 34° 263° (W) 03:30:24 436.000
KKS-1 18 Nov 03:22:06 03:25:17 20° 64° (ENE) 03:28:30 437.445
ITUPSAT 1 18 Nov 03:29:04 03:33:16 30° 264° (W) 03:37:28 437.325
STARS 18 Nov 03:56:59 04:00:01 18° 64° (ENE) 04:03:03 437.465
BEESAT 2 18 Nov 04:02:19 04:06:02 37° 117° (ESE) 04:09:48 435.950
YUBILEINY 18 Nov 04:02:40 04:06:58 15° 74° (ENE) 04:11:17 435.215
nSIGHT-1 18 Nov 04:04:30 04:07:42 81° 33° (NNE) 04:10:54 .
Gurwin Techsat 1B 18 Nov 04:04:54 04:05:33 10° 305° (NW) 04:06:13 435.225
ITAMSAT 1 18 Nov 04:10:15 04:15:29 77° 286° (WNW) 04:20:40 435.822/435.867
M-CUBED/EXP-1 PRIME 18 Nov 04:13:59 04:17:09 19° 300° (WNW) 04:20:24 437.505
AO-7 18 Nov 04:14:06 04:22:27 79° 291° (WNW) 04:30:48 .
CUBESAT XI-V 18 Nov 04:18:16 04:22:17 30° 264° (W) 04:26:21 437.345
RS-15 18 Nov 04:21:19 04:33:17 88° 238° (WSW) 04:44:32 29.354- 29.394
AO-85 18 Nov 04:31:24 04:34:45 29° 115° (ESE) 04:38:14 145.980
ISS 18 Nov 04:36:51 04:40:05 63° 216° (SW) 04:43:18 437.550
BEESAT 3 18 Nov 04:37:29 04:41:01 29° 313° (NW) 04:44:35 437.485
DOVE 4 18 Nov 04:38:48 04:43:45 40° 96° (E) 04:48:28 437.250
KKS-1 18 Nov 04:57:14 05:01:31 44° 261° (W) 05:05:50 437.445
XW-2F 18 Nov 05:09:48 05:11:23 12° 91° (E) 05:12:57 145.980 - 146.000
CUTE-I 18 Nov 05:17:37 05:21:07 17° 91° (E) 05:24:36 437.470
STRAND 1 18 Nov 05:24:16 05:27:47 19° 61° (ENE) 05:31:17 437.568
STARS 18 Nov 05:31:44 05:35:59 47° 260° (W) 05:40:17 437.465
BEESAT 2 18 Nov 05:40:32 05:43:51 24° 315° (NW) 05:47:12 435.950
nSIGHT-1 18 Nov 05:42:07 05:43:31 12° 229° (SW) 05:44:53 .
KAITUO 1B 18 Nov 05:42:45 05:45:48 23° 95° (E) 05:48:52 145.475/437.950
XW-2D 18 Nov 05:47:59 05:51:34 39° 98° (E) 05:55:08 145.860 - 145.880
ITAMSAT 1 18 Nov 05:52:29 05:54:02 11° 304° (NW) 05:55:36 435.822/435.867
FO-29 18 Nov 05:53:15 05:56:29 14° 50° (NE) 05:59:51 435.910
YUBILEINY 18 Nov 05:53:27 06:02:09 77° 94° (E) 06:10:57 435.215
XW-2B 18 Nov 06:02:33 06:06:19 56° 101° (E) 06:10:03 145.730 - 145.750
SO-50 18 Nov 06:03:35 06:07:16 23° 42° (NE) 06:10:59 436.795
HO-68 18 Nov 06:05:46 06:11:21 24° 92° (E) 06:16:52 435.675
AO-7 18 Nov 06:08:24 06:13:57 20° 312° (NW) 06:19:33 .
AO-85 18 Nov 06:11:42 06:15:05 27° 314° (NW) 06:18:38 145.980
DOVE 4 18 Nov 06:16:48 06:21:10 27° 294° (WNW) 06:25:24 437.250
LilacSat-2 18 Nov 06:25:25 06:29:13 67° 284° (WNW) 06:33:01 437.200
XW-2C 18 Nov 06:27:56 06:31:42 67° 285° (WNW) 06:35:28 145.795 - 145.815
NUDT-PHONESAT 18 Nov 06:33:09 06:36:51 85° 284° (WNW) 06:40:34 437.300
RS-15 18 Nov 06:35:42 06:43:52 23° 261° (W) 06:51:49 29.354- 29.394
UWE-3 18 Nov 06:39:19 06:39:39 10° 88° (E) 06:39:59 435.000/436.395/437.385
XW-2F 18 Nov 06:42:05 06:45:44 47° 286° (WNW) 06:49:23 145.980 - 146.000
CUTE 1.7 + AOD 2 18 Nov 06:48:29 06:52:34 43° 98° (E) 06:56:39 437.475
CUTE-I 18 Nov 06:56:16 07:01:36 63° 288° (WNW) 07:06:52 437.470
STRAND 1 18 Nov 07:01:23 07:06:28 61° 259° (WSW) 07:11:36 437.568
CUBEBUG 2 18 Nov 07:08:20 07:12:18 40° 98° (E) 07:16:12 437.445
KAITUO 1B 18 Nov 07:16:37 07:19:42 24° 291° (WNW) 07:22:47 145.475/437.950
XW-2A 18 Nov 07:17:09 07:19:55 23° 96° (E) 07:22:40 145.665 - 145.685
XW-2D 18 Nov 07:23:05 07:25:25 16° 294° (WNW) 07:27:45 145.860 - 145.880
SEEDS 18 Nov 07:25:48 07:30:02 70° 101° (E) 07:34:16 437.485
AO-73 18 Nov 07:28:39 07:31:28 18° 93° (E) 07:34:16 145.935
FO-29 18 Nov 07:33:35 07:39:58 65° 71° (ENE) 07:47:12 435.910
XW-2B 18 Nov 07:38:39 07:40:00 12° 297° (WNW) 07:41:20 145.730 - 145.750
AAUSAT CUBESAT 2 18 Nov 07:43:24 07:47:28 47° 99° (E) 07:51:30 437.432
SO-50 18 Nov 07:43:30 07:48:02 55° 241° (WSW) 07:52:37 436.795
Oscar 11 18 Nov 07:48:48 07:52:04 21° 93° (E) 07:55:19 .
PCSat 18 Nov 07:51:02 07:52:54 12° 32° (NNE) 07:54:46 145.827
HO-68 18 Nov 07:52:28 07:59:38 68° 290° (WNW) 08:06:42 435.675
YUBILEINY 18 Nov 07:53:04 07:59:54 25° 296° (WNW) 08:06:50 435.215
ZACube-1 18 Nov 08:10:35 08:14:41 59° 100° (E) 08:18:46 437.345
UWE-3 18 Nov 08:12:27 08:16:35 67° 285° (WNW) 08:20:40 435.000/436.395/437.385
CUTE 1.7 + AOD 2 18 Nov 08:25:11 08:28:03 18° 295° (WNW) 08:30:56 437.475
UNISAT 6 18 Nov 08:40:43 08:45:11 51° 73° (ENE) 08:49:35 437.425
CUBEBUG 2 18 Nov 08:45:46 08:48:36 18° 295° (WNW) 08:51:26 437.445
TIGRISAT 18 Nov 08:46:02 08:50:30 53° 73° (ENE) 08:54:54 435.000
DELFI C3 18 Nov 08:47:13 08:49:58 18° 93° (E) 08:52:43 145.870
XW-2A 18 Nov 08:50:03 08:52:29 19° 291° (WNW) 08:54:53 145.665 - 145.685
Max Valier Satellite 18 Nov 09:01:45 09:04:10 17° 93° (E) 09:06:35 145.860
SEEDS 18 Nov 09:03:35 09:05:08 12° 298° (WNW) 09:06:42 437.485
AO-73 18 Nov 09:04:00 09:07:52 38° 288° (WNW) 09:11:42 145.935
PRISM 18 Nov 09:07:56 09:11:40 35° 70° (ENE) 09:15:27 437.425
EO-88 18 Nov 09:08:31 09:10:29 14° 92° (E) 09:12:26 145.990 - 145.960
AAUSAT CUBESAT 2 18 Nov 09:19:55 09:22:32 16° 295° (WNW) 09:25:08 437.432
FO-29 18 Nov 09:20:37 09:25:40 24° 272° (W) 09:31:12 435.910
Oscar 11 18 Nov 09:24:19 09:28:17 36° 290° (WNW) 09:32:15 .
PCSat 18 Nov 09:32:20 09:37:37 51° 54° (NE) 09:42:53 145.827
AIST 2D 18 Nov 09:37:19 09:39:42 18° 68° (ENE) 09:42:06 435.315
HO-68 18 Nov 09:42:26 09:46:03 15° 310° (NW) 09:49:39 435.675
ZACube-1 18 Nov 09:48:35 09:50:28 13° 297° (WNW) 09:52:22 437.345
QB50P2 18 Nov 09:50:21 09:52:23 13° 62° (ENE) 09:54:27 145.880/145.840
UNISAT 6 18 Nov 10:19:13 10:22:09 17° 268° (W) 10:25:03 437.425
DELFI C3 18 Nov 10:21:08 10:24:49 36° 289° (WNW) 10:28:29 145.870
TIGRISAT 18 Nov 10:24:39 10:27:27 16° 268° (W) 10:30:15 435.000
Max Valier Satellite 18 Nov 10:34:47 10:38:04 32° 289° (WNW) 10:41:21 145.860
EO-88 18 Nov 10:40:52 10:44:16 38° 288° (WNW) 10:47:40 145.990 - 145.960
DUCHIFAT 1 18 Nov 10:43:25 10:47:11 32° 69° (ENE) 10:50:58 145.980
PRISM 18 Nov 10:43:59 10:47:01 20° 266° (W) 10:50:06 437.425
EO-79 18 Nov 10:46:12 10:50:15 45° 72° (ENE) 10:54:19 145.935-145.965
NANOSAT C BR1 18 Nov 10:51:44 10:55:47 46° 72° (ENE) 10:59:49 145.865
POLYITAN 1 18 Nov 11:00:23 11:04:36 65° 74° (ENE) 11:08:49 437.675
AIST 2D 18 Nov 11:09:42 11:12:41 27° 264° (W) 11:15:41 435.315
BEESAT 3 18 Nov 11:15:36 11:18:53 24° 45° (NE) 11:22:07 437.485
LO-87 18 Nov 11:15:48 11:19:20 65° 101° (E) 11:22:50 145.935 - 145.965
PCSat 18 Nov 11:16:23 11:20:41 24° 252° (WSW) 11:24:57 145.827
QB50P2 18 Nov 11:23:27 11:27:39 62° 258° (WSW) 11:31:53 145.880/145.840
ESTCUBE 1 18 Nov 11:41:33 11:46:06 84° 102° (ESE) 11:50:38 437.505/2401.250
FALCONSAT 3 18 Nov 11:48:24 11:51:09 20° 167° (SSE) 11:53:56 435.103
BUGSAT 1 18 Nov 11:48:46 11:52:45 42° 71° (ENE) 11:56:43 437.445
SPROUT 18 Nov 12:03:17 12:07:10 34° 97° (E) 12:11:02 437.525
Gurwin Techsat 1B 18 Nov 12:04:26 12:08:55 28° 65° (ENE) 12:13:24 435.225
Oscar 19 18 Nov 12:04:52 12:09:33 38° 68° (ENE) 12:14:15 437.125/150
VELOX 1 18 Nov 12:16:49 12:20:48 31° 97° (E) 12:24:44 145.980
BEESAT 2 18 Nov 12:18:52 12:22:31 31° 48° (NE) 12:26:06 435.950
DUCHIFAT 1 18 Nov 12:19:34 12:22:53 22° 266° (W) 12:26:13 145.980
EO-79 18 Nov 12:23:33 12:26:13 16° 268° (W) 12:28:55 145.935-145.965
NANOSAT C BR1 18 Nov 12:29:05 12:31:42 16° 268° (W) 12:34:20 145.865
POLYITAN 1 18 Nov 12:39:26 12:40:47 11° 270° (W) 12:42:08 437.675
